{"data":{"norad_id":48487,"intl_designator":"2021-040BM","name":"STARLINK-2494","alt_names":[],"object_type":"PAYLOAD","status":"ACTIVE","operator":null,"country":"US","launch_date":"2021-05-09","launch_site_code":"AFETR","launch_vehicle":null,"mission":null,"orbit_class":"UNKNOWN","rcs_meters":null,"size_class":null,"mass_kg":null,"dimensions":null,"purposes":["comms"],"wikipedia_slug":null,"has_3d_model":false,"image_url":null,"decayed_at":null,"tle_current":{"epoch":"2026-09-19T22:41:19.544640Z","epoch_age_seconds":85159,"freshness":"FRESH","line1":"1 48487U 21040BM  26262.94536510 -.00001354  00000+0 -31859-4 0  9993","line2":"2 48487  53.1620  10.0083 0001461  74.3011 285.8152 15.31694711296231","mean_motion":15.31694711,"eccentricity":0.0001461,"inclination_deg":53.162,"raan_deg":10.0083,"arg_perigee_deg":74.3011,"mean_anomaly_deg":285.8152,"bstar":-3.1859e-5,"rev_number":29623,"period_min":94.013512592197,"perigee_km":469.75513827234,"apogee_km":471.75638473725,"semimajor_km":6848.8927615048,"source":"CELESTRAK","updated_at":"2026-09-20T09:00:39.131800Z"}}}